TimeAKDT,TemperatureF,Dew PointF,Humidity,Sea Level PressureIn,VisibilityMPH,Wind Direction,Wind SpeedMPH,Gust SpeedMPH,PrecipitationIn,Events,Conditions,WindDirDegrees,DateUTC
12:16 AM,57.2,53.6,88,30.14,10.0,NW,4.6,-,N/A,,Overcast,310,2013-07-20 08:16:00
12:36 AM,57.2,51.8,82,30.15,10.0,NW,3.5,-,N/A,,Overcast,310,2013-07-20 08:36:00
12:56 AM,57.2,51.8,82,30.15,10.0,Calm,Calm,-,N/A,,Overcast,0,2013-07-20 08:56:00
1:16 AM,57.2,51.8,82,30.13,10.0,Calm,Calm,-,N/A,,Overcast,0,2013-07-20 09:16:00
1:36 AM,55.4,51.8,88,30.13,10.0,Calm,Calm,-,N/A,,Overcast,0,2013-07-20 09:36:00
1:56 AM,55.4,51.8,88,30.13,10.0,Calm,Calm,-,N/A,,Overcast,0,2013-07-20 09:56:00
2:16 AM,55.4,51.8,88,30.13,10.0,Calm,Calm,-,N/A,,Overcast,0,2013-07-20 10:16:00
2:36 AM,57.2,51.8,82,30.13,5.0,Calm,Calm,-,N/A,,Overcast,0,2013-07-20 10:36:00
2:56 AM,55.4,51.8,88,30.12,7.0,NNW,3.5,-,N/A,,Overcast,340,2013-07-20 10:56:00
3:16 AM,55.4,51.8,88,30.12,9.0,Calm,Calm,-,N/A,,Overcast,0,2013-07-20 11:16:00
3:36 AM,55.4,51.8,88,30.12,10.0,Calm,Calm,-,N/A,,Overcast,0,2013-07-20 11:36:00
3:56 AM,55.4,50.0,82,30.11,10.0,Calm,Calm,-,N/A,,Overcast,0,2013-07-20 11:56:00
4:16 AM,55.4,51.8,88,30.12,10.0,Calm,Calm,-,N/A,,Overcast,0,2013-07-20 12:16:00
4:36 AM,55.4,51.8,88,30.12,10.0,Calm,Calm,-,N/A,,Overcast,0,2013-07-20 12:36:00
4:56 AM,55.4,51.8,88,30.12,10.0,Calm,Calm,-,N/A,,Overcast,0,2013-07-20 12:56:00
5:16 AM,55.4,51.8,88,30.11,10.0,NNE,3.5,-,N/A,,Overcast,30,2013-07-20 13:16:00
5:36 AM,53.6,50.0,88,30.11,10.0,Calm,Calm,-,N/A,,Overcast,0,2013-07-20 13:36:00
5:56 AM,55.4,50.0,82,30.11,10.0,Calm,Calm,-,N/A,,Overcast,0,2013-07-20 13:56:00
6:16 AM,55.4,51.8,88,30.10,10.0,Calm,Calm,-,N/A,,Overcast,0,2013-07-20 14:16:00
6:36 AM,55.4,51.8,88,30.10,10.0,Calm,Calm,-,N/A,,Overcast,0,2013-07-20 14:36:00
6:56 AM,55.4,51.8,88,30.10,10.0,Calm,Calm,-,N/A,,Overcast,0,2013-07-20 14:56:00
7:16 AM,55.4,50.0,82,30.10,10.0,Calm,Calm,-,N/A,,Overcast,0,2013-07-20 15:16:00
7:36 AM,55.4,51.8,88,30.11,10.0,NW,3.5,-,N/A,,Overcast,320,2013-07-20 15:36:00
7:56 AM,55.4,51.8,88,30.10,10.0,NW,3.5,-,N/A,,Overcast,310,2013-07-20 15:56:00
8:16 AM,55.4,51.8,88,30.10,10.0,Calm,Calm,-,N/A,,Overcast,0,2013-07-20 16:16:00
8:36 AM,55.4,51.8,88,30.10,10.0,NNW,3.5,-,N/A,,Overcast,330,2013-07-20 16:36:00
8:56 AM,55.4,51.8,88,30.10,10.0,North,3.5,-,N/A,,Overcast,350,2013-07-20 16:56:00
9:16 AM,55.4,51.8,88,30.10,10.0,Calm,Calm,-,N/A,,Overcast,0,2013-07-20 17:16:00
9:36 AM,55.4,51.8,88,30.10,10.0,Calm,Calm,-,N/A,,Overcast,0,2013-07-20 17:36:00
9:56 AM,55.4,51.8,88,30.10,10.0,North,3.5,-,N/A,,Overcast,350,2013-07-20 17:56:00
10:16 AM,55.4,51.8,88,30.10,10.0,Calm,Calm,-,N/A,,Overcast,0,2013-07-20 18:16:00
10:36 AM,57.2,51.8,82,30.09,10.0,Calm,Calm,-,N/A,,Overcast,0,2013-07-20 18:36:00
10:56 AM,55.4,51.8,88,30.09,10.0,NW,3.5,-,N/A,,Overcast,320,2013-07-20 18:56:00
11:16 AM,55.4,51.8,88,30.09,10.0,NNW,3.5,-,N/A,,Overcast,340,2013-07-20 19:16:00
11:36 AM,55.4,51.8,88,30.10,10.0,Calm,Calm,-,N/A,,Overcast,0,2013-07-20 19:36:00
11:56 AM,57.2,51.8,82,30.10,10.0,Calm,Calm,-,N/A,,Overcast,0,2013-07-20 19:56:00
12:16 PM,57.2,51.8,82,30.10,10.0,Calm,Calm,-,N/A,,Overcast,0,2013-07-20 20:16:00
12:36 PM,57.2,51.8,82,30.10,10.0,Calm,Calm,-,N/A,,Overcast,0,2013-07-20 20:36:00
12:56 PM,57.2,51.8,82,30.10,10.0,Calm,Calm,-,N/A,,Overcast,0,2013-07-20 20:56:00
1:16 PM,57.2,53.6,88,30.10,10.0,Calm,Calm,-,N/A,,Overcast,0,2013-07-20 21:16:00
1:36 PM,57.2,53.6,88,30.10,10.0,Calm,Calm,-,N/A,,Overcast,0,2013-07-20 21:36:00
1:56 PM,57.2,53.6,88,30.10,10.0,Calm,Calm,-,N/A,,Overcast,0,2013-07-20 21:56:00
2:16 PM,57.2,53.6,88,30.09,10.0,NE,3.5,-,N/A,,Overcast,40,2013-07-20 22:16:00
2:36 PM,57.2,53.6,88,30.09,10.0,Calm,Calm,-,N/A,,Overcast,0,2013-07-20 22:36:00
2:56 PM,59.0,53.6,82,30.09,10.0,Calm,Calm,-,N/A,,Overcast,0,2013-07-20 22:56:00
3:16 PM,57.2,53.6,88,30.09,10.0,Calm,Calm,-,N/A,,Overcast,0,2013-07-20 23:16:00
3:36 PM,59.0,53.6,82,30.09,10.0,Calm,Calm,-,N/A,,Overcast,0,2013-07-20 23:36:00
3:56 PM,57.2,53.6,88,30.08,10.0,Calm,Calm,-,N/A,,Overcast,0,2013-07-20 23:56:00
4:16 PM,57.2,51.8,82,30.08,10.0,NNW,3.5,-,N/A,,Overcast,330,2013-07-21 00:16:00
4:36 PM,57.2,51.8,82,30.07,10.0,NNW,3.5,-,N/A,,Overcast,340,2013-07-21 00:36:00
4:56 PM,60.8,53.6,77,30.07,10.0,NNW,3.5,-,N/A,,Overcast,340,2013-07-21 00:56:00
5:16 PM,59.0,53.6,82,30.07,10.0,NNW,3.5,-,N/A,,Overcast,340,2013-07-21 01:16:00
5:36 PM,59.0,53.6,82,30.06,10.0,NNW,3.5,-,N/A,,Overcast,340,2013-07-21 01:36:00
5:56 PM,59.0,53.6,82,30.06,10.0,Calm,Calm,-,N/A,,Mostly Cloudy,0,2013-07-21 01:56:00
6:16 PM,59.0,53.6,82,30.05,10.0,Calm,Calm,-,N/A,,Mostly Cloudy,0,2013-07-21 02:16:00
6:36 PM,59.0,53.6,82,30.05,10.0,NNW,3.5,-,N/A,,Mostly Cloudy,340,2013-07-21 02:36:00
6:56 PM,57.2,53.6,88,30.05,10.0,NNW,5.8,-,N/A,,Overcast,330,2013-07-21 02:56:00
7:16 PM,57.2,53.6,88,30.05,10.0,NW,3.5,-,N/A,,Overcast,310,2013-07-21 03:16:00
7:36 PM,59.0,53.6,82,30.05,10.0,NW,3.5,-,N/A,,Overcast,320,2013-07-21 03:36:00
7:56 PM,57.2,53.6,88,30.05,10.0,North,3.5,-,N/A,,Overcast,360,2013-07-21 03:56:00
8:16 PM,57.2,53.6,88,30.05,10.0,Calm,Calm,-,N/A,,Overcast,0,2013-07-21 04:16:00
8:36 PM,57.2,53.6,88,30.05,10.0,Calm,Calm,-,N/A,,Overcast,0,2013-07-21 04:36:00
8:56 PM,57.2,53.6,88,30.05,10.0,WNW,5.8,-,N/A,,Overcast,300,2013-07-21 04:56:00
9:16 PM,57.2,53.6,88,30.05,10.0,North,3.5,-,N/A,,Overcast,350,2013-07-21 05:16:00
9:36 PM,57.2,53.6,88,30.05,10.0,ESE,3.5,-,N/A,,Overcast,120,2013-07-21 05:36:00
9:56 PM,57.2,53.6,88,30.05,10.0,ESE,3.5,-,N/A,,Overcast,120,2013-07-21 05:56:00
10:16 PM,57.2,53.6,88,30.05,10.0,Calm,Calm,-,N/A,,Overcast,0,2013-07-21 06:16:00
10:36 PM,57.2,51.8,82,30.05,10.0,Calm,Calm,-,N/A,,Overcast,0,2013-07-21 06:36:00
10:56 PM,55.4,51.8,88,30.04,10.0,Calm,Calm,-,N/A,,Overcast,0,2013-07-21 06:56:00
11:16 PM,55.4,51.8,88,30.04,10.0,SSE,3.5,-,N/A,,Overcast,150,2013-07-21 07:16:00
11:36 PM,57.2,51.8,82,30.04,10.0,SSE,4.6,-,N/A,,Overcast,160,2013-07-21 07:36:00
11:56 PM,57.2,51.8,82,30.03,10.0,Calm,Calm,-,N/A,,Overcast,0,2013-07-21 07:56:00